When you browse on this site, cookies collect data to enhance your experience and personalize the content and advertising you see.
Visit our Privacy Policy to learn more. By continuing to use the site, you agree to this use of cookies and data.
  • In Portugal
  • List of Countries
  • For 7 days
  • Water Temperature
  • Weather Map
  • Weather Widgets
  • user-avatar
    Login

    Hourly Weather Kivchey

    Today, 21 August, Wednesday

    Time Temperature Precipitation Wind Pressure Humidity
    00:00 +18°C° 0 mm 1 mps 748 mmHg 92%
    01:00 +18°C° 0 mm 1 mps 748 mmHg 93%
    02:00 +16°C° 0 mm 1 mps 748 mmHg 93%
    03:00 +16°C° 0 mm 1 mps 748 mmHg 93%
    04:00 +16°C° 0 mm 1 mps 748 mmHg 93%
    05:00 +16°C° 0 mm 1 mps 749 mmHg 93%
    06:00 +18°C° 0 mm 1 mps 749 mmHg 93%
    07:00 +19°C° 0 mm 1 mps 749 mmHg 87%
    08:00 +20°C° 0 mm 2 mps 749 mmHg 80%
    09:00 +23°C° 0 mm 2 mps 749 mmHg 74%
    10:00 +24°C° 0 mm 2 mps 749 mmHg 69%
    11:00 +25°C° 0 mm 2 mps 749 mmHg 65%
    12:00 +26°C° 0 mm 2 mps 749 mmHg 61%
    13:00 +26°C° 0 mm 2 mps 749 mmHg 61%
    14:00 +27°C° 0 mm 2 mps 749 mmHg 61%
    15:00 +27°C° 0 mm 2 mps 749 mmHg 60%
    16:00 +26°C° 0 mm 2 mps 748 mmHg 66%
    17:00 +26°C° 0 mm 2 mps 748 mmHg 71%
    18:00 +25°C° 0 mm 1 mps 748 mmHg 76%
    19:00 +23°C° 0 mm 1 mps 748 mmHg 80%
    20:00 +22°C° 0 mm 1 mps 748 mmHg 83%
    21:00 +20°C° 0 mm 1 mps 748 mmHg 87%
    22:00 +20°C° 0 mm 1 mps 748 mmHg 87%
    23:00 +18°C° 0 mm 0 mps 748 mmHg 88%

    Tomorrow, 22 August, Thursday

    Time Temperature Precipitation Wind Pressure Humidity
    00:00 +17°C° 0 mm 0 mps 748 mmHg 88%
    01:00 +17°C° 0 mm 0 mps 748 mmHg 89%
    02:00 +17°C° 0 mm 0 mps 748 mmHg 89%
    03:00 +17°C° 0 mm 0 mps 748 mmHg 90%
    04:00 +17°C° 0 mm 0 mps 748 mmHg 90%
    05:00 +17°C° 0 mm 0 mps 748 mmHg 90%
    06:00 +17°C° 0 mm 0 mps 747 mmHg 89%
    07:00 +21°C° 0 mm 1 mps 747 mmHg 83%
    08:00 +22°C° 0 mm 1 mps 748 mmHg 77%
    09:00 +24°C° 0 mm 1 mps 748 mmHg 71%
    10:00 +25°C° 0 mm 1 mps 748 mmHg 67%
    11:00 +26°C° 0 mm 1 mps 747 mmHg 63%
    12:00 +27°C° 0 mm 1 mps 747 mmHg 58%
    13:00 +27°C° 0 mm 1 mps 747 mmHg 57%
    14:00 +28°C° 0 mm 1 mps 747 mmHg 57%
    15:00 +28°C° 0 mm 2 mps 746 mmHg 56%
    16:00 +27°C° 0 mm 1 mps 746 mmHg 61%
    17:00 +26°C° 0 mm 1 mps 746 mmHg 65%
    18:00 +25°C° 0 mm 1 mps 746 mmHg 70%
    19:00 +24°C° 0 mm 1 mps 746 mmHg 73%
    20:00 +23°C° 0 mm 1 mps 746 mmHg 76%
    21:00 +21°C° 0 mm 1 mps 746 mmHg 79%
    22:00 +21°C° 0 mm 1 mps 746 mmHg 81%
    23:00 +20°C° 0 mm 1 mps 746 mmHg 83%

    Day after tomorrow, 23 August, Friday

    Time Temperature Precipitation Wind Pressure Humidity
    00:00 +19°C° 0 mm 2 mps 747 mmHg 85%
    01:00 +19°C° 0.1 mm 2 mps 747 mmHg 88%
    02:00 +18°C° 0.1 mm 3 mps 747 mmHg 92%
    03:00 +18°C° 0.1 mm 4 mps 748 mmHg 95%
    04:00 +17°C° 0 mm 4 mps 748 mmHg 93%
    05:00 +15°C° 0 mm 4 mps 748 mmHg 92%
    06:00 +15°C° 0 mm 4 mps 748 mmHg 91%
    07:00 +15°C° 0 mm 4 mps 748 mmHg 86%
    08:00 +17°C° 0 mm 4 mps 749 mmHg 82%
    09:00 +18°C° 0 mm 4 mps 749 mmHg 77%
    10:00 +19°C° 0 mm 4 mps 749 mmHg 71%
    11:00 +20°C° 0 mm 4 mps 749 mmHg 65%
    12:00 +21°C° 0 mm 4 mps 749 mmHg 60%
    13:00 +22°C° 0 mm 4 mps 749 mmHg 58%
    14:00 +22°C° 0 mm 4 mps 749 mmHg 56%
    15:00 +22°C° 0 mm 4 mps 749 mmHg 55%
    16:00 +21°C° 0 mm 3 mps 749 mmHg 60%
    17:00 +20°C° 0 mm 3 mps 749 mmHg 65%
    18:00 +19°C° 0 mm 2 mps 749 mmHg 70%
    19:00 +18°C° 0 mm 2 mps 749 mmHg 72%
    20:00 +17°C° 0 mm 2 mps 749 mmHg 74%
    21:00 +15°C° 0 mm 1 mps 749 mmHg 77%
    22:00 +15°C° 0 mm 2 mps 749 mmHg 79%
    23:00 +15°C° 0 mm 2 mps 749 mmHg 81%

    24 August, Saturday

    Time Temperature Precipitation Wind Pressure Humidity
    00:00 +14°C° 0 mm 2 mps 749 mmHg 83%
    01:00 +14°C° 0 mm 2 mps 749 mmHg 85%
    02:00 +13°C° 0 mm 2 mps 749 mmHg 87%
    03:00 +13°C° 0 mm 1 mps 750 mmHg 88%
    04:00 +13°C° 0 mm 1 mps 750 mmHg 88%
    05:00 +13°C° 0 mm 1 mps 750 mmHg 88%
    06:00 +13°C° 0 mm 1 mps 750 mmHg 88%
    07:00 +15°C° 0 mm 1 mps 750 mmHg 81%
    08:00 +18°C° 0 mm 1 mps 750 mmHg 74%
    09:00 +20°C° 0 mm 1 mps 750 mmHg 68%
    10:00 +20°C° 0 mm 2 mps 750 mmHg 62%
    11:00 +21°C° 0 mm 2 mps 750 mmHg 57%
    12:00 +23°C° 0 mm 2 mps 750 mmHg 52%
    13:00 +23°C° 0 mm 2 mps 750 mmHg 51%
    14:00 +24°C° 0 mm 2 mps 750 mmHg 50%
    15:00 +24°C° 0 mm 2 mps 750 mmHg 49%
    16:00 +23°C° 0 mm 2 mps 749 mmHg 55%
    17:00 +22°C° 0 mm 1 mps 749 mmHg 60%
    18:00 +21°C° 0 mm 1 mps 749 mmHg 66%
    19:00 +20°C° 0 mm 1 mps 749 mmHg 69%
    20:00 +18°C° 0 mm 1 mps 749 mmHg 72%
    21:00 +14°C° 0 mm 0 mps 749 mmHg 75%
    22:00 +15°C° 0 mm 1 mps 749 mmHg 77%
    23:00 +15°C° 0 mm 1 mps 748 mmHg 79%

    25 August, Sunday

    Time Temperature Precipitation Wind Pressure Humidity
    00:00 +14°C° 0 mm 1 mps 748 mmHg 80%
    01:00 +14°C° 0 mm 2 mps 748 mmHg 81%
    02:00 +14°C° 0 mm 2 mps 748 mmHg 82%
    03:00 +13°C° 0 mm 2 mps 748 mmHg 83%
    04:00 +13°C° 0 mm 2 mps 747 mmHg 84%
    05:00 +13°C° 0 mm 2 mps 747 mmHg 85%
    06:00 +13°C° 0 mm 2 mps 747 mmHg 86%
    07:00 +14°C° 0 mm 3 mps 747 mmHg 80%
    08:00 +17°C° 0 mm 3 mps 747 mmHg 74%
    09:00 +19°C° 0 mm 3 mps 747 mmHg 69%
    10:00 +20°C° 0 mm 4 mps 746 mmHg 65%
    11:00 +21°C° 0 mm 4 mps 746 mmHg 62%
    12:00 +23°C° 0 mm 4 mps 746 mmHg 58%
    13:00 +23°C° 0 mm 5 mps 746 mmHg 58%
    14:00 +23°C° 0 mm 5 mps 745 mmHg 57%
    15:00 +23°C° 0 mm 5 mps 745 mmHg 57%
    16:00 +21°C° 0.5 mm 5 mps 745 mmHg 67%
    17:00 +19°C° 0.5 mm 4 mps 745 mmHg 77%
    18:00 +17°C° 0.5 mm 4 mps 745 mmHg 88%
    19:00 +17°C° 0.2 mm 3 mps 745 mmHg 89%
    20:00 +16°C° 0.2 mm 3 mps 745 mmHg 91%
    21:00 +15°C° 0.2 mm 2 mps 745 mmHg 93%
    22:00 +14°C° 0 mm 3 mps 746 mmHg 93%
    23:00 +13°C° 0 mm 3 mps 746 mmHg 93%

    26 August, Monday

    Time Temperature Precipitation Wind Pressure Humidity
    00:00 +12°C° 0 mm 3 mps 746 mmHg 93%
    01:00 +11°C° 0 mm 3 mps 747 mmHg 94%
    02:00 +11°C° 0 mm 3 mps 747 mmHg 95%
    03:00 +10°C° 0 mm 3 mps 747 mmHg 96%
    04:00 +10°C° 0 mm 3 mps 748 mmHg 96%
    05:00 +10°C° 0 mm 3 mps 748 mmHg 96%
    06:00 +10°C° 0 mm 3 mps 748 mmHg 97%
    07:00 +11°C° 0 mm 4 mps 749 mmHg 91%
    08:00 +11°C° 0 mm 4 mps 750 mmHg 85%
    09:00 +12°C° 0 mm 4 mps 750 mmHg 80%
    10:00 +13°C° 0 mm 4 mps 750 mmHg 76%
    11:00 +13°C° 0 mm 4 mps 751 mmHg 72%
    12:00 +14°C° 0 mm 3 mps 751 mmHg 68%
    13:00 +16°C° 0 mm 3 mps 751 mmHg 65%
    14:00 +17°C° 0 mm 3 mps 751 mmHg 62%
    15:00 +18°C° 0 mm 3 mps 751 mmHg 58%
    16:00 +17°C° 0 mm 3 mps 751 mmHg 63%
    17:00 +16°C° 0 mm 3 mps 751 mmHg 67%
    18:00 +16°C° 0 mm 2 mps 751 mmHg 72%
    19:00 +14°C° 0 mm 2 mps 751 mmHg 76%
    20:00 +12°C° 0 mm 2 mps 751 mmHg 80%
    21:00 +10°C° 0 mm 2 mps 751 mmHg 84%
    22:00 +9°C° 0 mm 2 mps 752 mmHg 86%
    23:00 +9°C° 0 mm 2 mps 752 mmHg 87%
    Show more